Location: Tel Aviv
(32.0670°N, 34.7670°E)
Time: 02:41:44
(UTC+02:00)

Transit 4A - Pass Details

Date: 13 December 2023
Orbit: 869 x 974 km, 66.8° (Epoch: 23 February)

Event Time Altitude Azimuth Distance (km) Brightness Sun altitude
Exits shadow 04:36:07 17° 214° (SSW) 2,088 9.5 -23.9°
Drops below altitude 10° 04:37:45 10° 201° (SSW) 2,522 10.1 -23.6°
Sets 04:40:37 0° 188° (S) 3,447 11.0 -23.0°
